Regional Weather Roundup
Issued by NWS

Home | Current Version | Previous Version | Graphics & Text | Print | Product List | Glossary Off
Versions: 1 2 3 4 5 6 7 8 9 10 11 12 13 14 15 16 17 18 19 20 21 22 23 24 25 26 27 28 29 30 31 32 33 34 35 36 37 38 39 40 41 42 43 44 45 46 47 48 49 50

000
ASUS43 KTOP 291908
RWRKS

WEATHER ROUNDUP FOR KANSAS
NATIONAL WEATHER SERVICE GOODLAND KS
200 PM CDT SAT APR 29 2017

NOTE:  "FAIR" INDICATES FEW OR NO CLOUDS BELOW 12,000 FEET WITH NO
SIGNIFICANT WEATHER AND/OR OBSTRUCTIONS TO VISIBILITY.

KSZ001>006-013>018-027>032-041>047-292000-
NORTHWEST KANSAS

CITY           SKY/WX    TMP DP  RH WIND       PRES   REMARKS
GOODLAND       LGT SNOW  35  33  92 N32       30.05F FOG     WCI  21
HAYS           LGT RAIN  40  38  93 N32G40    29.90F FOG     WCI  28
HILL CITY      LGT RAIN  40  37  89 N28G35    29.99F FOG     WCI  29
RUSSELL        LGT RAIN  41  40  96 N24       29.89R FOG
$$

KSZ061>065-074>080-084>089-292000-
SOUTHWEST KANSAS

CITY           SKY/WX    TMP DP  RH WIND       PRES   REMARKS
DODGE CITY     LGT RAIN  39  38  96 N30G39    29.87F FOG     WCI  27
ELKHART          N/A     33  27  79 N23         N/A  WCI  21
GARDEN CITY    LGT SNOW  34  32  92 N32       29.92S FOG     WCI  20
GREAT BEND     LGT RAIN  42  41  96 N20G29    29.87R FOG
LIBERAL        LGT RAIN  36  35  96 N31G40    29.86F WCI  23
PRATT          LGT RAIN  41  40  97 N20       29.82F
$$

KSZ066>073-081>083-090>101-292000-
SOUTHEAST KANSAS

CITY           SKY/WX    TMP DP  RH WIND       PRES   REMARKS
CHANUTE        TSTM      53  51  93 E17G24    29.64F
COFFEYVILLE    LGT RAIN  54  52  93 E14G24    29.67F
HUTCHINSON     CLOUDY    44  42  93 N18G25    29.78R
MEDICINE LODGE   N/A     44  41  89 N18G26    29.77S
NEWTON         CLOUDY    45  44  97 N13       29.79R
PARSONS        LGT RAIN  54  51  90 NE10G23   29.65F
WICHITA INTL   CLOUDY    47  46  97 N14       29.75R FOG
WICHITA JABRA  CLOUDY    48  46  93 N14       29.75R
WICHITA MCCONL CLOUDY    48  46  93 N12G18    29.73F
WINFIELD       LGT RAIN  52  50  93 NW7       29.73R
$$

KSZ007>012-019>026-033>040-048>060-102>105-292000-
NORTHEAST KANSAS

CITY           SKY/WX    TMP DP  RH WIND       PRES   REMARKS
CONCORDIA      CLOUDY    43  42  97 N18G30    29.87F
EMPORIA        CLOUDY    47  47 100 NE23G36   29.61F
LAWRENCE       LGT RAIN  49  48  97 NE13      29.84F
MANHATTAN      CLOUDY    46  46 100 NE22G37   29.76F
MARYSVILLE     LGT RAIN  43  43 100 NE24G36   29.85F
OLATHE IND     LGT RAIN  49  48  97 NE10      29.86R
OLATHE EXE     LGT RAIN  48  48 100 NE16      29.84F
SALINA         CLOUDY    46  43  89 N17       29.83F
TOPEKA BILLARD LGT RAIN  48  47  96 NE14      29.84F
TOPEKA FORBES  LGT RAIN  49  47  93 NE12      29.81F
$$




USA.gov is the U.S. government's official web portal to all federal, state and local government web resources and services.